Weather History for Trenton, NJ

Change the Weather History Date:

Saturday, March 2, 2013

  Actual Average Record
Temperature  
Mean Temperature 35 °F 37 °F  
Max Temperature 40 °F 46 °F 75 °F (1972)
Min Temperature 30 °F 28 °F 12 °F (1980)
Degree Days  
Heating Degree Days 30 28  
Month to date heating degree days 56 56  
Since 1 July heating degree days 3657 3870  
Cooling Degree Days 0 0  
Month to date cooling degree days 0 0  
Year to date cooling degree days 0 0  
Moisture  
Dew Point 21 °F    
Average Humidity 56    
Maximum Humidity 64    
Minimum Humidity 48    
Precipitation  
Precipitation T in 0.12 in 1.57 in (2007)
Month to date precipitation T 0.23  
Year to date precipitation 4.62 5.70  
Sea Level Pressure  
Sea Level Pressure 29.75 in    
Wind  
Wind Speed 10 mph (North)    
Max Wind Speed 16 mph    
Max Gust Speed 23 mph    
Visibility 10 miles    
Events      
T = Trace of Precipitation, MM = Missing Value Source: NWS Daily Summary

Daily Weather History Graph

Daily Weather History Graph

Search for Another Location

Airport:

Trip Planner

Search our weather history database for the weather conditions in past years. The results will help you decide how hot, cold, wet, or windy it might be!

Date:

Astronomy

Mar. 02, 2013 Rise Set
Actual Time 6:30 AM EST 5:52 PM EST
Civil Twilight 6:03 AM EST 6:19 PM EST
Nautical Twilight 5:32 AM EST 6:51 PM EST
Astronomical Twilight 5:00 AM EST 7:22 PM EST
Moon 11:29 PM EST (3/2) 8:56 AM EST (3/2)
Length of Visible Light 12h 15m
Length of Day
11h 21m
Waning Gibbous, 74% of the Moon is Illuminated
Mar 2
Waning Gibbous
Mar 4
Last Quarter
Mar 11
New
Mar 19
First Quarter
Mar 27
Full

Hourly Weather History & Observations

Time (EST) Temp. Windchill Dew Point Humidity Pressure Visibility Wind Dir Wind Speed Gust Speed Precip Events Conditions
12:53 AM 35.1 °F 29.3 °F 24.1 °F 64% - 10.0 mi North 6.9 mph - N/A   Overcast
1:53 AM 34.0 °F 23.8 °F 21.9 °F 61% - 10.0 mi North 16.1 mph 20.7 mph N/A   Overcast
2:53 AM 33.1 °F 25.5 °F 21.0 °F 61% - 10.0 mi North 9.2 mph - N/A   Overcast
3:53 AM 33.1 °F 25.5 °F 21.0 °F 61% - 10.0 mi North 9.2 mph - N/A   Overcast
4:53 AM 33.1 °F 27.7 °F 21.0 °F 61% 29.79 in 10.0 mi North 5.8 mph - N/A   Overcast
5:53 AM 32.0 °F 24.2 °F 21.0 °F 64% 29.79 in 10.0 mi North 9.2 mph - N/A   Overcast
6:53 AM 32.0 °F 24.8 °F 19.9 °F 61% 29.79 in 10.0 mi North 8.1 mph - N/A   Overcast
7:53 AM 33.1 °F 23.9 °F 21.0 °F 61% 29.79 in 10.0 mi North 12.7 mph 18.4 mph N/A   Overcast
8:53 AM 35.1 °F 26.9 °F 21.0 °F 57% 29.78 in 10.0 mi North 11.5 mph 20.7 mph N/A   Clear
9:53 AM 37.0 °F 28.5 °F 21.0 °F 52% 29.77 in 10.0 mi NNW 13.8 mph 19.6 mph N/A   Scattered Clouds
10:53 AM 37.9 °F 30.9 °F 21.9 °F 53% 29.77 in 10.0 mi North 10.4 mph 17.3 mph N/A   Overcast
11:53 AM 39.0 °F 31.4 °F 21.9 °F 50% 29.76 in 10.0 mi North 12.7 mph 16.1 mph N/A   Overcast
12:53 PM 39.0 °F 32.8 °F 21.9 °F 50% 29.73 in 10.0 mi North 9.2 mph - N/A   Overcast
1:53 PM 39.0 °F 33.4 °F 21.9 °F 50% 29.71 in 10.0 mi NW 8.1 mph - N/A   Overcast
2:53 PM 37.9 °F 31.5 °F 21.9 °F 53% 29.71 in 10.0 mi North 9.2 mph - N/A   Overcast
3:53 PM 39.0 °F 32.3 °F 21.9 °F 50% 29.71 in 10.0 mi North 10.4 mph - N/A   Overcast
4:53 PM 37.0 °F 28.5 °F 21.0 °F 52% 29.72 in 10.0 mi North 13.8 mph 20.7 mph N/A   Overcast
5:53 PM 35.1 °F 27.9 °F 19.9 °F 54% 29.74 in 10.0 mi North 9.2 mph - N/A   Overcast
6:53 PM 35.1 °F 28.6 °F 21.0 °F 57% 29.76 in 10.0 mi NNW 8.1 mph - N/A   Overcast
8:53 PM 34.0 °F 26.6 °F 19.9 °F 56% 29.76 in 10.0 mi North 9.2 mph - N/A   Overcast
9:53 PM 33.1 °F 24.9 °F 19.0 °F 56% 29.76 in 10.0 mi North 10.4 mph - N/A   Overcast
10:53 PM 30.9 °F 22.8 °F 19.0 °F 61% 29.75 in 10.0 mi North 9.2 mph 16.1 mph N/A   Mostly Cloudy
11:53 PM 30.0 °F 23.2 °F 18.0 °F 61% 29.75 in 10.0 mi NNW 6.9 mph - N/A   Clear